When you browse on this site, cookies collect data to enhance your experience and personalize the content and advertising you see.
Visit our Privacy Policy to learn more. By continuing to use the site, you agree to this use of cookies and data.
  • In United Kingdom
  • List of Countries
  • For 7 days
  • Water Temperature
  • Weather Map
  • Weather Widgets
  • user-avatar
    Login

    Hourly Weather Shaposhnykove

    Today, 22 September, Sunday

    Time Temperature Precipitation Wind Pressure Humidity
    00:00 +8°C° 0 mm 3 mps 748 mmHg 59%
    01:00 +8°C° 0 mm 3 mps 748 mmHg 60%
    02:00 +6°C° 0 mm 4 mps 748 mmHg 60%
    03:00 +6°C° 0 mm 4 mps 748 mmHg 61%
    04:00 +6°C° 0 mm 4 mps 747 mmHg 60%
    05:00 +6°C° 0 mm 5 mps 747 mmHg 59%
    06:00 +6°C° 0 mm 5 mps 746 mmHg 58%
    07:00 +8°C° 0 mm 7 mps 746 mmHg 54%
    08:00 +9°C° 0 mm 8 mps 746 mmHg 50%
    09:00 +10°C° 0 mm 9 mps 746 mmHg 45%
    10:00 +11°C° 0 mm 9 mps 745 mmHg 53%
    11:00 +11°C° 0 mm 9 mps 745 mmHg 61%
    12:00 +11°C° 0 mm 9 mps 745 mmHg 69%
    13:00 +12°C° 0 mm 9 mps 745 mmHg 67%
    14:00 +13°C° 0 mm 9 mps 744 mmHg 65%
    15:00 +15°C° 0 mm 9 mps 744 mmHg 63%
    16:00 +15°C° 0 mm 8 mps 744 mmHg 62%
    17:00 +15°C° 0 mm 8 mps 744 mmHg 61%
    18:00 +15°C° 0 mm 7 mps 744 mmHg 61%
    19:00 +14°C° 0 mm 6 mps 744 mmHg 63%
    20:00 +14°C° 0 mm 6 mps 744 mmHg 65%
    21:00 +13°C° 0 mm 6 mps 744 mmHg 66%
    22:00 +13°C° 0 mm 5 mps 744 mmHg 66%
    23:00 +13°C° 0 mm 5 mps 744 mmHg 66%

    Tomorrow, 23 September, Monday

    Time Temperature Precipitation Wind Pressure Humidity
    00:00 +13°C° 0 mm 5 mps 744 mmHg 66%
    01:00 +13°C° 0 mm 5 mps 744 mmHg 69%
    02:00 +12°C° 0 mm 4 mps 744 mmHg 73%
    03:00 +12°C° 0 mm 3 mps 745 mmHg 76%
    04:00 +11°C° 0 mm 3 mps 745 mmHg 78%
    05:00 +10°C° 0 mm 3 mps 745 mmHg 81%
    06:00 +9°C° 0 mm 3 mps 745 mmHg 83%
    07:00 +9°C° 0.2 mm 3 mps 746 mmHg 80%
    08:00 +9°C° 0.2 mm 3 mps 746 mmHg 77%
    09:00 +9°C° 0.2 mm 3 mps 746 mmHg 75%
    10:00 +10°C° 0 mm 3 mps 747 mmHg 70%
    11:00 +10°C° 0 mm 3 mps 747 mmHg 66%
    12:00 +11°C° 0 mm 3 mps 748 mmHg 61%
    13:00 +12°C° 0 mm 3 mps 748 mmHg 55%
    14:00 +12°C° 0 mm 3 mps 748 mmHg 49%
    15:00 +14°C° 0 mm 2 mps 748 mmHg 43%
    16:00 +13°C° 0 mm 2 mps 748 mmHg 41%
    17:00 +13°C° 0 mm 2 mps 748 mmHg 40%
    18:00 +12°C° 0 mm 2 mps 748 mmHg 38%
    19:00 +10°C° 0 mm 2 mps 748 mmHg 39%
    20:00 +9°C° 0 mm 2 mps 749 mmHg 39%
    21:00 +8°C° 0 mm 2 mps 749 mmHg 40%
    22:00 +9°C° 0 mm 1 mps 749 mmHg 41%
    23:00 +8°C° 0 mm 1 mps 749 mmHg 42%

    Day after tomorrow, 24 September, Tuesday

    Time Temperature Precipitation Wind Pressure Humidity
    00:00 +8°C° 0 mm 1 mps 749 mmHg 43%
    01:00 +8°C° 0 mm 1 mps 749 mmHg 43%
    02:00 +7°C° 0 mm 1 mps 749 mmHg 44%
    03:00 +7°C° 0 mm 1 mps 749 mmHg 45%
    04:00 +7°C° 0 mm 1 mps 749 mmHg 45%
    05:00 +7°C° 0 mm 1 mps 749 mmHg 46%
    06:00 +6°C° 0 mm 1 mps 749 mmHg 47%
    07:00 +8°C° 0 mm 1 mps 749 mmHg 43%
    08:00 +9°C° 0 mm 2 mps 749 mmHg 39%
    09:00 +12°C° 0 mm 2 mps 750 mmHg 35%
    10:00 +13°C° 0 mm 2 mps 749 mmHg 33%
    11:00 +15°C° 0 mm 2 mps 749 mmHg 31%
    12:00 +16°C° 0 mm 1 mps 749 mmHg 28%
    13:00 +18°C° 0 mm 1 mps 749 mmHg 28%
    14:00 +18°C° 0 mm 1 mps 748 mmHg 28%
    15:00 +19°C° 0 mm 1 mps 748 mmHg 29%
    16:00 +18°C° 0 mm 1 mps 748 mmHg 31%
    17:00 +18°C° 0 mm 1 mps 748 mmHg 34%
    18:00 +16°C° 0 mm 1 mps 747 mmHg 37%
    19:00 +15°C° 0 mm 1 mps 747 mmHg 38%
    20:00 +14°C° 0 mm 1 mps 747 mmHg 38%
    21:00 +14°C° 0 mm 1 mps 748 mmHg 39%
    22:00 +13°C° 0 mm 1 mps 747 mmHg 38%
    23:00 +13°C° 0 mm 1 mps 747 mmHg 37%

    25 September, Wednesday

    Time Temperature Precipitation Wind Pressure Humidity
    00:00 +13°C° 0 mm 1 mps 747 mmHg 36%
    01:00 +12°C° 0 mm 1 mps 747 mmHg 36%
    02:00 +12°C° 0 mm 1 mps 747 mmHg 36%
    03:00 +10°C° 0 mm 2 mps 747 mmHg 36%
    04:00 +10°C° 0 mm 2 mps 747 mmHg 38%
    05:00 +9°C° 0 mm 2 mps 747 mmHg 39%
    06:00 +9°C° 0 mm 2 mps 747 mmHg 41%
    07:00 +10°C° 0 mm 2 mps 747 mmHg 40%
    08:00 +12°C° 0 mm 2 mps 747 mmHg 38%
    09:00 +13°C° 0 mm 2 mps 747 mmHg 37%
    10:00 +14°C° 0 mm 2 mps 747 mmHg 35%
    11:00 +16°C° 0 mm 2 mps 747 mmHg 33%
    12:00 +18°C° 0 mm 2 mps 748 mmHg 31%
    13:00 +19°C° 0 mm 2 mps 747 mmHg 31%
    14:00 +19°C° 0 mm 2 mps 747 mmHg 31%
    15:00 +20°C° 0 mm 2 mps 747 mmHg 32%
    16:00 +19°C° 0 mm 2 mps 747 mmHg 34%
    17:00 +18°C° 0 mm 2 mps 746 mmHg 37%
    18:00 +17°C° 0 mm 3 mps 746 mmHg 39%
    19:00 +16°C° 0 mm 3 mps 747 mmHg 41%
    20:00 +14°C° 0 mm 3 mps 747 mmHg 44%
    21:00 +13°C° 0 mm 3 mps 747 mmHg 46%
    22:00 +12°C° 0 mm 3 mps 747 mmHg 46%
    23:00 +12°C° 0 mm 3 mps 747 mmHg 46%

    26 September, Thursday

    Time Temperature Precipitation Wind Pressure Humidity
    00:00 +12°C° 0 mm 3 mps 746 mmHg 46%
    01:00 +11°C° 0 mm 3 mps 746 mmHg 49%
    02:00 +11°C° 0 mm 3 mps 746 mmHg 52%
    03:00 +11°C° 0 mm 3 mps 746 mmHg 55%
    04:00 +11°C° 0 mm 3 mps 746 mmHg 62%
    05:00 +10°C° 0 mm 3 mps 746 mmHg 70%
    06:00 +10°C° 0 mm 3 mps 746 mmHg 77%
    07:00 +12°C° 0 mm 4 mps 746 mmHg 72%
    08:00 +14°C° 0 mm 4 mps 746 mmHg 68%
    09:00 +15°C° 0 mm 5 mps 746 mmHg 63%
    10:00 +17°C° 0 mm 5 mps 746 mmHg 59%
    11:00 +20°C° 0 mm 5 mps 746 mmHg 54%
    12:00 +21°C° 0 mm 5 mps 746 mmHg 50%
    13:00 +22°C° 0 mm 5 mps 745 mmHg 48%
    14:00 +22°C° 0 mm 4 mps 744 mmHg 47%
    15:00 +23°C° 0 mm 4 mps 744 mmHg 46%
    16:00 +22°C° 0 mm 3 mps 744 mmHg 49%
    17:00 +21°C° 0 mm 3 mps 743 mmHg 52%
    18:00 +20°C° 0 mm 2 mps 743 mmHg 55%
    19:00 +20°C° 0 mm 2 mps 743 mmHg 56%
    20:00 +19°C° 0 mm 2 mps 743 mmHg 58%
    21:00 +19°C° 0 mm 2 mps 743 mmHg 59%
    22:00 +19°C° 0 mm 2 mps 743 mmHg 60%
    23:00 +18°C° 0 mm 2 mps 742 mmHg 60%

    27 September, Friday

    Time Temperature Precipitation Wind Pressure Humidity
    00:00 +18°C° 0 mm 2 mps 742 mmHg 61%
    01:00 +18°C° 0.1 mm 2 mps 742 mmHg 64%
    02:00 +18°C° 0.1 mm 2 mps 742 mmHg 66%
    03:00 +18°C° 0.1 mm 3 mps 742 mmHg 69%
    04:00 +17°C° 0.1 mm 2 mps 742 mmHg 73%
    05:00 +17°C° 0.1 mm 2 mps 742 mmHg 77%
    06:00 +16°C° 0.1 mm 2 mps 741 mmHg 81%
    07:00 +17°C° 0 mm 3 mps 741 mmHg 77%
    08:00 +17°C° 0 mm 4 mps 741 mmHg 72%
    09:00 +18°C° 0 mm 4 mps 741 mmHg 68%
    10:00 +17°C° 0.2 mm 5 mps 741 mmHg 67%
    11:00 +19°C° 0.2 mm 5 mps 741 mmHg 65%
    12:00 +19°C° 0.2 mm 6 mps 741 mmHg 64%
    13:00 +20°C° 0.2 mm 6 mps 741 mmHg 59%
    14:00 +20°C° 0.2 mm 7 mps 741 mmHg 55%
    15:00 +21°C° 0.2 mm 7 mps 741 mmHg 51%
    16:00 +20°C° 0 mm 6 mps 741 mmHg 52%
    17:00 +19°C° 0 mm 6 mps 741 mmHg 53%
    18:00 +19°C° 0 mm 5 mps 742 mmHg 53%
    19:00 +17°C° 0 mm 5 mps 742 mmHg 59%
    20:00 +15°C° 0 mm 4 mps 742 mmHg 65%
    21:00 +14°C° 0 mm 4 mps 743 mmHg 71%
    22:00 +14°C° 0 mm 4 mps 743 mmHg 73%
    23:00 +13°C° 0 mm 4 mps 743 mmHg 76%
    Show more